#timestamp,LO_Frequency,Hit,StdDev 
1663135215.6,286047004.0,N
1663135235.4,286047002.0,N
1663135255.2,286047000.8,N
1663135275.1,286046999.9,N
1663135276.0,286046999.9,N
1663135295.8,286046998.9,N
1663135315.7,286046998.3,N
1663135335.5,286046999.0,N
1663135355.3,286046996.9,N
1663135375.2,286046999.1,N
1663135395.9,286046998.2,N
1663135415.7,286047000.3,N
1663135435.6,286047000.0,N
1663135455.4,286047001.4,N
1663135475.3,286047003.4,N
1663135495.1,286047004.2,N
1663135496.0,286047004.2,N
1663135515.8,286047004.3,N
1663135535.7,286047002.2,N
1663135555.5,286047000.7,N
1663135575.3,286046999.1,N
1663135595.2,286046998.2,N
1663135615.0,286047001.1,N
1663135615.9,286047001.1,N
1663135635.8,286047002.2,N
1663135655.6,286046999.8,N
1663135675.4,286047002.3,N
1663135695.3,286047004.3,N
1663135715.1,286047003.7,N
1663135735.8,286047003.0,N
1663135755.7,286047000.1,N
1663135775.5,286047000.0,N
1663135795.4,286047000.2,N
1663135815.2,286047000.1,N
1663135835.0,286047001.4,N
1663135835.9,286047001.4,N
1663135855.8,286047001.8,N
1663135875.6,286047002.4,N
1663135895.4,286046998.3,N
1663135915.3,286047000.0,N
1663135935.1,286047000.1,N
1663135955.9,286047001.9,N
1663135975.7,286047003.8,N
1663135995.5,286047004.4,N
1663136015.4,286047000.4,N
1663136035.2,286047001.6,N
1663136055.0,286047000.3,N
1663136055.9,286047000.3,N
1663136075.8,286047000.0,N
1663136095.6,286047004.2,N
1663136115.5,286047005.9,Y
1663136135.3,286047001.6,P
1663136155.1,286047004.3,P
1663136175.9,286047003.3,N
1663136195.7,286047002.9,N
1663136215.6,286047002.5,N
1663136235.4,286047001.3,N
1663136255.2,286047003.9,Y
1663136275.1,286047000.3,P
1663136276.0,286047000.3,N
1663136295.8,286047002.8,N
1663136315.7,286047002.5,N
1663136335.5,286047000.5,N
1663136355.3,286046998.2,N
1663136375.2,286047000.6,N
1663136395.0,286047002.5,N
1663136395.9,286047002.5,N
1663136415.7,286047001.6,N
1663136435.6,286047004.0,N
1663136455.4,286047001.6,N
1663136475.3,286047001.7,N
1663136495.1,286047000.0,N
1663136496.0,286047000.0,N
1663136515.8,286046999.6,N
1663136535.7,286046996.7,N
1663136555.5,286046996.1,N
1663136575.3,286046995.0,N
1663136595.2,286046993.8,N
1663136615.0,286046997.8,N
1663136615.9,286046997.8,N
1663136635.8,286046999.6,N
1663136655.6,286046998.7,N
1663136675.4,286046998.4,N
1663136695.3,286047000.5,N
1663136715.1,286046999.8,N
1663136735.9,286046999.8,N
1663136755.8,286046999.7,N
1663136775.6,286046999.8,N
1663136795.4,286047000.4,N
1663136815.3,286046999.6,N
1663136835.1,286046996.7,N
1663136855.9,286046998.9,N
1663136875.7,286046998.4,N
1663136895.5,286046998.2,N
1663136915.4,286046998.1,N
1663136935.2,286047000.4,N
1663136955.0,286047001.0,N
1663136955.9,286047001.0,N
1663136975.8,286047000.7,N
1663136995.6,286046998.1,N
1663137015.5,286046998.5,N
1663137035.3,286046998.1,N
1663137055.1,286047000.1,N
1663137075.9,286047001.0,N
1663137095.7,286047000.3,N
1663137115.5,286047000.5,N
1663137135.4,286046999.7,N
1663137155.2,286046999.9,N
1663137175.1,286047001.0,N
1663137176.0,286047001.0,N
1663137195.8,286047002.8,N
1663137215.6,286047002.7,N
1663137235.5,286047000.4,N
1663137255.3,286046996.6,N
1663137275.1,286047001.1,N
1663137295.9,286047000.4,N
1663137315.7,286047000.0,N
1663137335.6,286046998.6,N
1663137355.4,286046999.3,N
1663137375.2,286047000.2,N
1663137395.1,286047002.7,N
1663137396.0,286047002.7,N
1663137415.8,286046998.5,N
1663137435.7,286046999.4,N
1663137455.5,286046997.4,N
1663137475.3,286046998.9,N
1663137495.2,286046996.9,N
1663137515.0,286046995.1,Y
1663137515.9,286046995.1,P
1663137535.7,286046999.2,N
1663137555.6,286046997.1,N
1663137575.4,286046998.7,N
1663137595.3,286046999.9,N
1663137615.1,286047000.3,N
1663137635.9,286047000.3,N
1663137655.7,286046999.8,N
1663137675.5,286046998.4,N
1663137695.4,286046996.8,N
1663137715.2,286046999.3,N
1663137735.0,286047000.5,N
1663137735.9,286047000.5,N
1663137755.8,286046998.5,N
1663137775.6,286046999.6,N
1663137795.5,286046999.1,N
1663137815.3,286046998.7,N
1663137835.1,286047000.8,N
1663137855.9,286046999.3,N
1663137875.7,286046998.4,N
1663137895.5,286046998.5,N
1663137915.4,286047000.0,N
1663137935.2,286046998.2,N
1663137955.1,286047000.1,N
1663137956.0,286047000.1,N
1663137975.8,286047002.7,N
1663137995.6,286047001.9,N
1663138015.5,286047002.3,N
1663138035.3,286047002.5,N
1663138055.2,286047004.4,N
1663138075.9,286047002.9,N
1663138095.7,286047003.7,N
1663138115.6,286047003.6,N
1663138135.4,286047003.7,N
1663138155.2,286047003.3,N
1663138175.1,286047002.9,N
1663138176.0,286047002.9,N
1663138195.8,286047005.3,N
1663138215.7,286047004.5,N
1663138235.5,286047007.5,Y
1663138255.3,286047005.2,P
1663138275.2,286047005.3,N
1663138295.0,286047003.3,N
1663138295.9,286047003.3,N
1663138315.8,286047001.9,N
1663138335.6,286046999.7,N
1663138355.4,286047000.2,N
1663138375.3,286047000.5,N
1663138395.1,286046998.5,N
1663138415.8,286046999.0,N
1663138435.7,286046996.5,N
1663138455.5,286046996.6,N
1663138475.4,286046996.9,N
1663138495.2,286046999.5,N
1663138515.0,286046999.1,N
1663138515.9,286046999.1,N
1663138535.8,286046999.5,N
1663138555.6,286046999.3,N
1663138575.4,286046996.7,N
1663138595.3,286046995.3,N
1663138615.1,286046994.9,N
1663138635.9,286046994.9,N
1663138655.7,286046994.9,N
1663138675.5,286046995.9,N
1663138695.4,286046995.9,N
1663138715.2,286046996.2,N
1663138735.0,286046996.1,N
1663138735.9,286046996.1,N
1663138755.8,286046996.4,N
1663138775.6,286046993.7,N
1663138795.5,286046996.0,N
